TimeMDT,TemperatureF,Dew PointF,Humidity,Sea Level PressureIn,VisibilityMPH,Wind Direction,Wind SpeedMPH,Gust SpeedMPH,PrecipitationIn,Events,Conditions,WindDirDegrees,DateUTC
12:35 AM,46.9,31.5,55,30.09,10.0,NNE,8.1,-,N/A,,Overcast,30,2013-04-20 06:35:00
12:55 AM,45.7,33.1,61,30.09,10.0,ENE,13.8,-,N/A,,Overcast,70,2013-04-20 06:55:00
1:15 AM,44.2,34.0,67,30.09,10.0,ENE,12.7,-,N/A,,Overcast,60,2013-04-20 07:15:00
1:35 AM,43.7,34.0,69,30.08,10.0,ENE,11.5,-,N/A,,Overcast,60,2013-04-20 07:35:00
1:55 AM,43.0,34.0,71,30.07,10.0,ENE,10.4,-,N/A,,Mostly Cloudy,60,2013-04-20 07:55:00
2:15 AM,42.4,34.2,72,30.07,10.0,NE,8.1,-,N/A,,Mostly Cloudy,40,2013-04-20 08:15:00
2:35 AM,42.1,34.5,75,30.06,10.0,NE,10.4,-,N/A,,Scattered Clouds,40,2013-04-20 08:35:00
2:55 AM,41.9,34.2,74,30.04,10.0,NE,10.4,-,N/A,,Scattered Clouds,50,2013-04-20 08:55:00
3:15 AM,41.9,34.0,73,30.04,10.0,NE,9.2,-,N/A,,Overcast,50,2013-04-20 09:15:00
3:35 AM,41.4,34.0,75,30.03,10.0,NE,8.1,-,N/A,,Mostly Cloudy,40,2013-04-20 09:35:00
3:55 AM,41.9,34.2,74,30.03,10.0,NE,6.9,-,N/A,,Overcast,40,2013-04-20 09:55:00
4:15 AM,42.1,34.2,74,30.03,10.0,NE,8.1,-,N/A,,Overcast,40,2013-04-20 10:15:00
4:35 AM,42.1,34.2,74,30.03,10.0,NE,6.9,-,N/A,,Overcast,40,2013-04-20 10:35:00
4:55 AM,42.1,34.2,74,30.03,10.0,NE,6.9,-,N/A,,Overcast,40,2013-04-20 10:55:00
5:15 AM,41.9,34.3,75,30.03,10.0,NE,4.6,-,N/A,,Overcast,40,2013-04-20 11:15:00
5:35 AM,41.7,33.8,73,30.03,10.0,NE,4.6,-,N/A,,Overcast,40,2013-04-20 11:35:00
5:55 AM,40.5,33.3,75,30.02,10.0,ENE,4.6,-,N/A,,Scattered Clouds,70,2013-04-20 11:55:00
6:15 AM,39.2,33.3,79,30.02,10.0,East,4.6,-,N/A,,Mostly Cloudy,80,2013-04-20 12:15:00
6:35 AM,40.1,33.8,78,30.02,10.0,ENE,5.8,-,N/A,,Mostly Cloudy,60,2013-04-20 12:35:00
6:55 AM,41.0,34.2,77,30.02,10.0,East,5.8,-,N/A,,Overcast,80,2013-04-20 12:55:00
7:15 AM,41.0,34.2,77,30.02,10.0,ENE,6.9,-,N/A,,Overcast,70,2013-04-20 13:15:00
7:35 AM,41.5,34.7,77,30.03,10.0,East,6.9,-,N/A,,Overcast,90,2013-04-20 13:35:00
7:55 AM,42.8,34.7,73,30.03,10.0,East,8.1,-,N/A,,Overcast,90,2013-04-20 13:55:00
8:15 AM,43.7,34.0,69,30.03,10.0,ENE,9.2,-,N/A,,Overcast,70,2013-04-20 14:15:00
8:35 AM,45.1,33.4,64,30.03,10.0,East,11.5,16.1,N/A,,Overcast,80,2013-04-20 14:35:00
8:55 AM,46.4,34.0,62,30.04,10.0,ENE,12.7,-,N/A,,Overcast,70,2013-04-20 14:55:00
9:15 AM,47.1,34.0,60,30.04,10.0,East,9.2,-,N/A,,Overcast,80,2013-04-20 15:15:00
9:35 AM,47.3,34.5,61,30.04,10.0,SE,5.8,-,N/A,,Overcast,130,2013-04-20 15:35:00
9:55 AM,47.3,34.5,61,30.04,10.0,SSE,4.6,-,N/A,,Overcast,150,2013-04-20 15:55:00
10:15 AM,48.4,34.2,58,30.04,10.0,SE,5.8,-,N/A,,Overcast,140,2013-04-20 16:15:00
10:35 AM,49.1,34.0,56,30.05,10.0,SSE,5.8,-,N/A,,Overcast,160,2013-04-20 16:35:00
10:55 AM,49.8,33.3,53,30.05,10.0,Calm,Calm,-,N/A,,Overcast,0,2013-04-20 16:55:00
11:15 AM,51.8,31.5,46,30.04,10.0,Calm,Calm,-,N/A,,Mostly Cloudy,0,2013-04-20 17:15:00
11:35 AM,52.7,30.4,42,30.03,10.0,WNW,4.6,-,N/A,,Scattered Clouds,290,2013-04-20 17:35:00
11:55 AM,53.6,30.4,41,30.03,10.0,NW,6.9,-,N/A,,Clear,310,2013-04-20 17:55:00
12:15 PM,55.0,30.0,38,30.03,10.0,West,4.6,-,N/A,,Clear,270,2013-04-20 18:15:00
12:35 PM,54.7,28.6,37,30.02,10.0,West,6.9,-,N/A,,Scattered Clouds,280,2013-04-20 18:35:00
12:55 PM,55.6,29.3,37,30.02,10.0,West,8.1,-,N/A,,Scattered Clouds,260,2013-04-20 18:55:00
1:15 PM,55.6,30.0,38,30.01,10.0,WSW,8.1,17.3,N/A,,Mostly Cloudy,240,2013-04-20 19:15:00
1:35 PM,56.3,30.2,37,30.00,10.0,WSW,6.9,-,N/A,,Mostly Cloudy,240,2013-04-20 19:35:00
1:55 PM,58.8,30.0,34,30.00,10.0,SW,11.5,21.9,N/A,,Scattered Clouds,220,2013-04-20 19:55:00
2:15 PM,57.4,28.6,33,29.99,10.0,WSW,13.8,19.6,N/A,,Scattered Clouds,240,2013-04-20 20:15:00
2:35 PM,59.9,29.8,32,29.99,10.0,West,18.4,27.6,N/A,,Scattered Clouds,260,2013-04-20 20:35:00
2:55 PM,59.7,30.0,32,29.98,10.0,WSW,16.1,23.0,N/A,,Mostly Cloudy,250,2013-04-20 20:55:00
3:15 PM,61.0,29.3,30,29.98,10.0,WSW,19.6,26.5,N/A,,Scattered Clouds,240,2013-04-20 21:15:00
3:35 PM,61.2,29.8,31,29.98,10.0,WSW,20.7,26.5,N/A,,Clear,250,2013-04-20 21:35:00
3:55 PM,61.2,28.6,29,29.98,10.0,WSW,18.4,28.8,N/A,,Clear,250,2013-04-20 21:55:00
4:15 PM,61.2,28.4,29,29.96,10.0,WSW,19.6,24.2,N/A,,Clear,240,2013-04-20 22:15:00
4:35 PM,61.5,27.9,28,29.96,10.0,WSW,18.4,26.5,N/A,,Clear,250,2013-04-20 22:35:00
4:55 PM,61.0,26.4,27,29.97,10.0,West,15.0,24.2,N/A,,Clear,260,2013-04-20 22:55:00
5:15 PM,61.0,26.8,27,29.97,10.0,West,18.4,24.2,N/A,,Clear,260,2013-04-20 23:15:00
5:35 PM,61.2,28.0,28,29.98,10.0,West,17.3,25.3,N/A,,Clear,260,2013-04-20 23:35:00
5:55 PM,60.8,27.9,29,29.98,10.0,West,17.3,21.9,N/A,,Scattered Clouds,270,2013-04-20 23:55:00
6:15 PM,60.3,28.4,30,29.98,10.0,WNW,15.0,23.0,N/A,,Scattered Clouds,290,2013-04-21 00:15:00
6:35 PM,58.6,30.0,34,29.99,10.0,WNW,16.1,20.7,N/A,,Clear,290,2013-04-21 00:35:00
6:55 PM,58.1,30.4,35,29.99,10.0,WNW,12.7,25.3,N/A,,Clear,300,2013-04-21 00:55:00
7:15 PM,56.7,30.0,36,30.00,10.0,WNW,20.7,25.3,N/A,,Scattered Clouds,300,2013-04-21 01:15:00
7:35 PM,55.8,30.7,39,30.02,10.0,NW,11.5,21.9,N/A,,Scattered Clouds,310,2013-04-21 01:35:00
7:55 PM,55.4,31.5,40,30.02,10.0,WNW,15.0,19.6,N/A,,Clear,290,2013-04-21 01:55:00
8:15 PM,54.5,31.5,42,30.04,10.0,WNW,13.8,17.3,N/A,,Scattered Clouds,300,2013-04-21 02:15:00
8:35 PM,54.5,31.8,42,30.05,10.0,WNW,9.2,-,N/A,,Scattered Clouds,290,2013-04-21 02:35:00
8:55 PM,54.3,32.0,43,30.06,10.0,WNW,8.1,-,N/A,,Mostly Cloudy,290,2013-04-21 02:55:00
9:15 PM,54.0,32.2,44,30.06,10.0,West,5.8,-,N/A,,Overcast,260,2013-04-21 03:15:00
9:35 PM,53.4,32.9,46,30.08,10.0,SSW,6.9,-,N/A,,Overcast,210,2013-04-21 03:35:00
9:55 PM,52.0,33.8,50,30.09,10.0,WSW,6.9,-,N/A,,Overcast,250,2013-04-21 03:55:00
10:15 PM,51.8,34.3,51,30.09,10.0,WSW,6.9,-,N/A,,Overcast,250,2013-04-21 04:15:00
10:35 PM,50.9,35.1,55,30.10,10.0,WSW,4.6,-,N/A,,Overcast,250,2013-04-21 04:35:00
10:55 PM,50.5,35.4,56,30.11,10.0,SSW,6.9,-,N/A,,Overcast,200,2013-04-21 04:55:00
11:15 PM,50.2,35.6,57,30.12,10.0,SE,3.5,-,N/A,,Overcast,130,2013-04-21 05:15:00
11:35 PM,47.8,36.5,65,30.12,10.0,SE,4.6,-,N/A,,Overcast,130,2013-04-21 05:35:00
11:55 PM,46.9,36.7,68,30.13,10.0,Calm,Calm,-,N/A,,Overcast,0,2013-04-21 05:55:00